DJ4LZ-12 Weather Reports


Display with metric or nautical units.
time (UTC)temp
F
wind
direction
speed
MPH
gust
MPH
rain 1hr
in
rain 24hr
in
rain mn
in
humidity
%
barometer
mb
20260502225831 59 0.0 0.0 0.00 0.00 0.00 60
20260502224330 59 0.0 0.0 0.00 0.00 0.00 61
20260502222829 60 0.0 0.0 0.00 0.00 0.00 60
20260502221328 60 0.0 0.0 0.00 0.00 0.00 60
20260502215827 61 0.0 0.0 0.00 0.00 0.00 58
20260502214327 62 0.0 0.0 0.00 0.00 0.00 58
20260502212826 62 0.0 0.0 0.00 0.00 0.00 59
20260502211325 63 0.0 0.0 0.00 0.00 0.00 57
20260502205824 64 0.0 0.0 0.00 0.00 0.00 57
20260502204324 64 0.0 0.0 0.00 0.00 0.00 54
20260502202823 66 0.0 0.0 0.00 0.00 0.00 52
20260502201322 65 0.0 0.0 0.00 0.00 0.00 52
20260502195822 67 0.0 0.0 0.00 0.00 0.00 51
20260502194321 67 0.0 0.0 0.00 0.00 0.00 50
20260502192820 68 0.0 0.0 0.00 0.00 0.00 49
20260502191319 69 0.0 0.0 0.00 0.00 0.00 49
20260502185818 71 0.0 0.0 0.00 0.00 0.00 46
20260502184317 72 0.0 0.0 0.00 0.00 0.00 44
20260502182816 73 0.0 0.0 0.00 0.00 0.00 41
20260502181316 75 0.0 0.0 0.00 0.00 0.00 37
20260502164311 78 0.0 0.0 0.00 0.00 0.00 29
20260502162811 78 0.0 0.0 0.00 0.00 0.00 30
20260502161310 79 0.0 0.0 0.00 0.00 0.00 28
20260502151307 80 0.0 0.0 0.00 0.00 0.00 25
20260502122800 77 0.0 0.0 0.00 0.00 0.00 29
20260502121259 78 0.0 0.0 0.00 0.00 0.00 30
20260502115758 76 0.0 0.0 0.00 0.00 0.00 30
20260502114258 76 0.0 0.0 0.00 0.00 0.00 30
20260502112757 77 0.0 0.0 0.00 0.00 0.00 30
20260502111256 76 0.0 0.0 0.00 0.00 0.00 32
20260502105756 75 0.0 0.0 0.00 0.00 0.00 37
20260502104255 75 0.0 0.0 0.00 0.00 0.00 35
20260502102754 74 0.0 0.0 0.00 0.00 0.00 36
20260502101253 74 0.0 0.0 0.00 0.00 0.00 37
20260502091251 72 0.0 0.0 0.00 0.00 0.00 40
20260502071246 68 0.0 0.0 0.00 0.00 0.00 44
20260502065744 67 0.0 0.0 0.00 0.00 0.00 45
20260502064243 64 0.0 0.0 0.00 0.00 0.00 49
20260502062742 62 0.0 0.0 0.00 0.00 0.00 49
20260502061242 58 0.0 0.0 0.00 0.00 0.00 52
20260502055741 57 0.0 0.0 0.00 0.00 0.00 53
20260502054240 55 0.0 0.0 0.00 0.00 0.00 57
20260502052740 52 0.0 0.0 0.00 0.00 0.00 61
20260502051239 51 0.0 0.0 0.00 0.00 0.00 62
20260502045738 49 0.0 0.0 0.00 0.00 0.00 64
20260502044238 47 0.0 0.0 0.00 0.00 0.00 65
20260502042737 48 0.0 0.0 0.00 0.00 0.00 63
20260502041237 48 0.0 0.0 0.00 0.00 0.00 64
20260502035736 47 0.0 0.0 0.00 0.00 0.00 65
20260502034235 48 0.0 0.0 0.00 0.00 0.00 64
20260502032734 48 0.0 0.0 0.00 0.00 0.00 64
20260502031234 48 0.0 0.0 0.00 0.00 0.00 64
20260502025733 49 0.0 0.0 0.00 0.00 0.00 62
20260502024233 49 0.0 0.0 0.00 0.00 0.00 64
20260502022732 49 0.0 0.0 0.00 0.00 0.00 62
20260502021231 50 0.0 0.0 0.00 0.00 0.00 62
20260502014230 50 0.0 0.0 0.00 0.00 0.00 62
20260502012729 51 0.0 0.0 0.00 0.00 0.00 62
20260502011228 51 0.0 0.0 0.00 0.00 0.00 61
20260502005728 52 0.0 0.0 0.00 0.00 0.00 61
20260502004227 52 0.0 0.0 0.00 0.00 0.00 61
20260502002726 52 0.0 0.0 0.00 0.00 0.00 61
20260502001225 52 0.0 0.0 0.00 0.00 0.00 62
20260501235725 52 0.0 0.0 0.00 0.00 0.00 63
20260501234224 53 0.0 0.0 0.00 0.00 0.00 62
20260501232723 53 0.0 0.0 0.00 0.00 0.00 62
20260501231222 54 0.0 0.0 0.00 0.00 0.00 59